Volver al catálogo

STARLINK-1404

ActivoComunicacionesVLEO
NORAD 45686·PAYLOAD·🇺🇸 United States

Lanzado Jun 4, 2020 desde Cape Canaveral Space Force Station

Loading…

Próximos Pases (próximas 24 horas)

TLE

ActualizadoSource: CelesTrak SupGP

Época: Sep 15, 2026, 02:10 UTC

1 45686C 20035AF  26258.09076389  .00037511  00000+0  54292-3 0  2583
2 45686  53.1509 230.6700 0004745  79.7301 178.3989 15.55246000    13

Sigue STARLINK-1404 en tiempo real con AllMySat

Download on the App Store